Location: Ehingen
(48.2869°N, 9.7112°E)
Time: 03:05:13
(UTC+01:00)

N. Korean satellite - Visible Passes

Search period start: 20 November 2017 00:00
Search period end: 30 November 2017 00:00
Orbit: 460 x 515 km, 97.2° (Epoch: 18 November)

Date Brightness Start Highest point End Pass type
(mag) Time Alt. Az. Time Alt. Az. Time Alt. Az.
20 Nov 6.9 17:45:15 10° SE 17:48:32 39° ENE 17:51:54 10° N visible
20 Nov 9.6 19:20:02 10° SW 19:22:16 16° W 19:24:33 10° NW visible
21 Nov 8.7 06:42:06 10° NNE 06:45:31 33° E 06:48:57 10° SSE visible
21 Nov 7.7 17:22:25 10° ESE 17:25:12 22° ENE 17:28:03 10° NNE visible
21 Nov 8.6 18:55:31 10° SSW 18:58:36 28° W 19:01:46 10° NNW visible
22 Nov 9.8 06:19:10 10° NE 06:21:54 19° E 06:24:37 10° SE visible
22 Nov 7.3 18:31:34 10° S 18:35:01 54° W 18:38:35 10° NNW visible
23 Nov 10.3 05:57:18 10° ENE 05:58:11 11° E 05:59:05 10° ESE visible
23 Nov 6.4 18:07:59 10° SSE 18:11:31 76° ENE 18:15:08 10° N visible
24 Nov 7.3 07:04:56 10° NNE 07:08:40 62° E 07:12:24 10° S visible
24 Nov 7.0 17:44:46 10° SE 17:48:06 39° ENE 17:51:30 10° N visible
24 Nov 9.6 19:19:31 10° SW 19:21:49 16° W 19:24:10 10° NW visible
25 Nov 8.7 06:41:40 10° NNE 06:45:07 33° E 06:48:32 10° SSE visible
25 Nov 7.7 17:21:55 10° ESE 17:24:45 22° ENE 17:27:38 10° NNE visible
25 Nov 8.6 18:55:01 10° SSW 18:58:08 29° W 19:01:22 10° NNW visible
26 Nov 9.7 06:18:43 10° NE 06:21:28 19° E 06:24:12 10° SE visible
26 Nov 7.3 18:31:04 10° S 18:34:32 55° W 18:38:09 10° NNW visible
27 Nov 10.3 05:56:50 10° ENE 05:57:44 11° E 05:58:38 10° ESE visible
27 Nov 6.4 18:07:29 10° SSE 18:11:02 76° ENE 18:14:42 10° N visible
28 Nov 7.3 07:04:27 10° NNE 07:08:12 62° E 07:11:56 10° S visible
28 Nov 7.0 17:44:14 10° SE 17:47:36 39° ENE 17:51:03 10° N visible
28 Nov 9.6 19:18:57 10° SW 19:21:19 17° W 19:23:43 10° NW visible
29 Nov 8.7 06:41:11 10° NNE 06:44:37 33° E 06:48:03 10° SSE visible
29 Nov 7.7 17:21:22 10° ESE 17:24:15 23° ENE 17:27:10 10° NNE visible
29 Nov 8.6 18:54:26 10° SSW 18:57:38 29° W 19:00:53 10° NNW visible
